owner,sensor,date,latitude,longitude,vertical_datum,wind_speed,wind_to_direction,wind_speed_of_gust,qcFlag 
TABS,ioos:station:wmo:42043:1,2015-09-15T02:00:00Z,28.9818,-94.9186,4.0,8.400630929,121.6659357,10.91,'11111222,11111222,11111222' 
TABS,ioos:station:wmo:42043:1,2015-09-15T02:30:00Z,28.9818,-94.9186,4.0,7.813859482,139.2558515,10.0,'11111222,11111222,11111222' 
TABS,ioos:station:wmo:42043:1,2015-09-15T03:00:00Z,28.9818,-94.9186,4.0,7.710415034,127.4647184,9.41,'11111222,11111222,11111222' 
TABS,ioos:station:wmo:42043:1,2015-09-15T03:30:00Z,28.9818,-94.9186,4.0,5.252237618,137.6238874,6.76,'11111222,11111222,11111222' 
TABS,ioos:station:wmo:42043:1,2015-09-15T04:00:00Z,28.9818,-94.9186,4.0,7.638337515,133.8333436,9.89,'11111222,11111222,11111222' 
TABS,ioos:station:wmo:42043:1,2015-09-15T04:30:00Z,28.9818,-94.9186,4.0,8.610836196,143.9288929,10.8,'11111222,11111222,11111222' 
TABS,ioos:station:wmo:42043:1,2015-09-15T05:00:00Z,28.9818,-94.9186,4.0,8.700925238,145.7257789,10.89,'11111222,11111222,11111222' 
TABS,ioos:station:wmo:42043:1,2015-09-15T05:30:00Z,28.9818,-94.9186,4.0,8.49419802,143.5216276,11.0,'11111222,11111222,11111222' 
TABS,ioos:station:wmo:42043:1,2015-09-15T06:00:00Z,28.9818,-94.9186,4.0,8.152600812,140.8246262,10.21,'11111222,11111222,11111222' 
TABS,ioos:station:wmo:42043:1,2015-09-15T06:30:00Z,28.9818,-94.9186,4.0,7.022001139,135.6349847,8.78,'11111222,11111222,11111222' 
TABS,ioos:station:wmo:42043:1,2015-09-15T07:00:00Z,28.9818,-94.9186,4.0,6.215343916,138.8490694,7.51,'11111222,11111222,11111222' 
TABS,ioos:station:wmo:42043:1,2015-09-15T07:30:00Z,28.9818,-94.9186,4.0,6.192786126,138.6664211,8.03,'11111222,11111222,11111222' 
TABS,ioos:station:wmo:42043:1,2015-09-15T08:00:00Z,28.9818,-94.9186,4.0,6.155014216,136.8436772,7.86,'11111222,11111222,11111222' 
TABS,ioos:station:wmo:42043:1,2015-09-15T08:30:00Z,28.9818,-94.9186,4.0,5.90912007,144.9923853,7.66,'11111222,11111222,11111222' 
TABS,ioos:station:wmo:42043:1,2015-09-15T09:00:00Z,28.9818,-94.9186,4.0,6.053304882,145.0237804,7.55,'11111222,11111222,11111222' 
TABS,ioos:station:wmo:42043:1,2015-09-15T09:30:00Z,28.9818,-94.9186,4.0,5.834672227,140.0061365,7.23,'11111222,11111222,11111222' 
TABS,ioos:station:wmo:42043:1,2015-09-15T10:00:00Z,28.9818,-94.9186,4.0,5.492249084,145.3843121,6.93,'11111222,11111222,11111222' 
TABS,ioos:station:wmo:42043:1,2015-09-15T10:30:00Z,28.9818,-94.9186,4.0,5.459029218,144.2429998,6.97,'11111222,11111222,11111222' 
TABS,ioos:station:wmo:42043:1,2015-09-15T11:00:00Z,28.9818,-94.9186,4.0,5.838527212,140.4208983,7.14,'11111222,11111222,11111222' 
TABS,ioos:station:wmo:42043:1,2015-09-15T11:30:00Z,28.9818,-94.9186,4.0,5.217825217,141.6148785,6.75,'11111222,11111222,11111222' 
TABS,ioos:station:wmo:42043:1,2015-09-15T12:00:00Z,28.9818,-94.9186,4.0,5.90702971,131.7063584,7.16,'11111222,11111222,11111222' 
TABS,ioos:station:wmo:42043:1,2015-09-15T12:30:00Z,28.9818,-94.9186,4.0,6.046023487,130.169907,7.76,'11111222,11111222,11111222' 
TABS,ioos:station:wmo:42043:1,2015-09-15T13:00:00Z,28.9818,-94.9186,4.0,6.417226815,129.943079,7.81,'11111222,11111222,11111222' 
TABS,ioos:station:wmo:42043:1,2015-09-15T13:30:00Z,28.9818,-94.9186,4.0,7.058342582,133.85226,8.7,'11111222,11111222,11111222' 
TABS,ioos:station:wmo:42043:1,2015-09-15T14:00:00Z,28.9818,-94.9186,4.0,4.100780414,150.8099672,5.95,'11111222,11111222,11111222' 
TABS,ioos:station:wmo:42043:1,2015-09-15T14:30:00Z,28.9818,-94.9186,4.0,7.76858417,146.3920434,9.75,'11111222,11111222,11111222' 
TABS,ioos:station:wmo:42043:1,2015-09-15T15:00:00Z,28.9818,-94.9186,4.0,7.561937582,141.2813274,9.08,'11111222,11111222,11111222' 
TABS,ioos:station:wmo:42043:1,2015-09-15T15:30:00Z,28.9818,-94.9186,4.0,7.28233479,148.3618561,9.69,'11111222,11111222,11111222' 
TABS,ioos:station:wmo:42043:1,2015-09-15T16:00:00Z,28.9818,-94.9186,4.0,7.251551558,148.3047864,8.81,'11111222,11111222,11111222' 
TABS,ioos:station:wmo:42043:1,2015-09-15T16:30:00Z,28.9818,-94.9186,4.0,6.800183821,148.5307772,8.6,'11111222,11111222,11111222' 
TABS,ioos:station:wmo:42043:1,2015-09-15T17:00:00Z,28.9818,-94.9186,4.0,6.595399912,146.1897517,8.15,'11111222,11111222,11111222' 
TABS,ioos:station:wmo:42043:1,2015-09-15T17:30:00Z,28.9818,-94.9186,4.0,5.028727473,145.614997,6.46,'11111222,11111222,11111222' 
TABS,ioos:station:wmo:42043:1,2015-09-15T18:00:00Z,28.9818,-94.9186,4.0,5.357630073,151.0910944,6.84,'11111222,11111222,11111222' 
TABS,ioos:station:wmo:42043:1,2015-09-15T18:30:00Z,28.9818,-94.9186,4.0,5.946040699,143.34239,7.46,'11111222,11111222,11111222' 
TABS,ioos:station:wmo:42043:1,2015-09-15T19:00:00Z,28.9818,-94.9186,4.0,5.754528651,143.907039,7.42,'11111222,11111222,11111222' 
TABS,ioos:station:wmo:42043:1,2015-09-15T19:30:00Z,28.9818,-94.9186,4.0,7.283323417,150.1968541,9.47,'11111222,11111222,11111222' 
TABS,ioos:station:wmo:42043:1,2015-09-15T20:00:00Z,28.9818,-94.9186,4.0,7.845967117,152.1941188,9.45,'11111222,11111222,11111222' 
TABS,ioos:station:wmo:42043:1,2015-09-15T20:30:00Z,28.9818,-94.9186,4.0,8.243476208,150.5743751,10.13,'11111222,11111222,11111222' 
TABS,ioos:station:wmo:42043:1,2015-09-15T21:00:00Z,28.9818,-94.9186,4.0,7.195846024,156.3207366,9.4,'11111222,11111222,11111222' 
TABS,ioos:station:wmo:42043:1,2015-09-15T21:30:00Z,28.9818,-94.9186,4.0,8.078199057,159.5687328,10.64,'11111222,11111222,11111222' 
TABS,ioos:station:wmo:42043:1,2015-09-15T22:00:00Z,28.9818,-94.9186,4.0,6.697141181,163.1616998,8.74,'11111222,11111222,11111222' 
TABS,ioos:station:wmo:42043:1,2015-09-15T22:30:00Z,28.9818,-94.9186,4.0,6.578753681,162.6670083,8.55,'11111222,11111222,11111222' 
TABS,ioos:station:wmo:42043:1,2015-09-15T23:00:00Z,28.9818,-94.9186,4.0,6.923821199,160.3352994,8.61,'11111222,11111222,11111222' 
TABS,ioos:station:wmo:42043:1,2015-09-15T23:30:00Z,28.9818,-94.9186,4.0,7.564456359,159.1693949,9.75,'11111222,11111222,11111222' 
TABS,ioos:station:wmo:42043:1,2015-09-16T00:00:00Z,28.9818,-94.9186,4.0,6.938357154,159.0576089,8.54,'11111222,11111222,11111222' 
TABS,ioos:station:wmo:42043:1,2015-09-16T00:30:00Z,28.9818,-94.9186,4.0,6.876990621,177.41657,8.61,'11111222,11111222,11111222' 
TABS,ioos:station:wmo:42043:1,2015-09-16T01:00:00Z,28.9818,-94.9186,4.0,8.073345032,161.3633233,10.78,'11111222,11111222,11111222' 
TABS,ioos:station:wmo:42043:1,2015-09-16T01:30:00Z,28.9818,-94.9186,4.0,7.309288611,160.4993469,9.1,'11111222,11111222,11111222' 
TABS,ioos:station:wmo:42043:1,2015-09-16T02:00:00Z,28.9818,-94.9186,4.0,6.748347946,161.7800953,8.58,'11111222,11111222,11111222' 
TABS,ioos:station:wmo:42043:1,2015-09-16T02:30:00Z,28.9818,-94.9186,4.0,5.574549309,163.3206945,7.71,'11111222,11111222,11111222' 
TABS,ioos:station:wmo:42043:1,2015-09-16T03:00:00Z,28.9818,-94.9186,4.0,5.784989196,160.4063929,7.44,'11111222,11111222,11111222' 
TABS,ioos:station:wmo:42043:1,2015-09-16T03:30:00Z,28.9818,-94.9186,4.0,5.46561067,163.8532596,7.21,'11111222,11111222,11111222' 
TABS,ioos:station:wmo:42043:1,2015-09-16T04:00:00Z,28.9818,-94.9186,4.0,4.561797891,152.8735174,6.0,'11111222,11111222,11111222' 
TABS,ioos:station:wmo:42043:1,2015-09-16T04:30:00Z,28.9818,-94.9186,4.0,4.772221705,142.5781111,6.42,'11111222,11111222,11111222' 
TABS,ioos:station:wmo:42043:1,2015-09-16T05:00:00Z,28.9818,-94.9186,4.0,5.448678739,138.6462146,6.8,'11111222,11111222,11111222' 
TABS,ioos:station:wmo:42043:1,2015-09-16T05:30:00Z,28.9818,-94.9186,4.0,5.85211073,142.7779354,7.55,'11111222,11111222,11111222' 
TABS,ioos:station:wmo:42043:1,2015-09-16T06:00:00Z,28.9818,-94.9186,4.0,5.646459067,140.3896148,7.09,'11111222,11111222,11111222' 
TABS,ioos:station:wmo:42043:1,2015-09-16T06:30:00Z,28.9818,-94.9186,4.0,5.619572938,137.4522837,7.4,'11111222,11111222,11111222' 
TABS,ioos:station:wmo:42043:1,2015-09-16T07:00:00Z,28.9818,-94.9186,4.0,5.455135195,137.0059584,6.92,'11111222,11111222,11111222' 
TABS,ioos:station:wmo:42043:1,2015-09-16T07:30:00Z,28.9818,-94.9186,4.0,6.886160033,138.532602,8.51,'11111222,11111222,11111222' 
TABS,ioos:station:wmo:42043:1,2015-09-16T08:00:00Z,28.9818,-94.9186,4.0,6.389405293,141.9286942,8.16,'11111222,11111222,11111222' 
TABS,ioos:station:wmo:42043:1,2015-09-16T08:30:00Z,28.9818,-94.9186,4.0,6.679775445,141.8093499,8.85,'11111222,11111222,11111222' 
TABS,ioos:station:wmo:42043:1,2015-09-16T09:00:00Z,28.9818,-94.9186,4.0,6.492803709,146.1144236,8.21,'11111222,11111222,11111222' 
TABS,ioos:station:wmo:42043:1,2015-09-16T09:30:00Z,28.9818,-94.9186,4.0,6.398476381,146.4095639,8.37,'11111222,11111222,11111222' 
TABS,ioos:station:wmo:42043:1,2015-09-16T10:00:00Z,28.9818,-94.9186,4.0,5.769228718,148.9002706,7.5,'11111222,11111222,11111222' 
TABS,ioos:station:wmo:42043:1,2015-09-16T10:30:00Z,28.9818,-94.9186,4.0,5.939377072,147.5142967,7.59,'11111222,11111222,11111222' 
TABS,ioos:station:wmo:42043:1,2015-09-16T11:00:00Z,28.9818,-94.9186,4.0,5.553017198,145.5661643,7.35,'11111222,11111222,11111222' 
TABS,ioos:station:wmo:42043:1,2015-09-16T11:30:00Z,28.9818,-94.9186,4.0,5.511850869,145.2722662,7.09,'11111222,11111222,11111222' 
TABS,ioos:station:wmo:42043:1,2015-09-16T12:00:00Z,28.9818,-94.9186,4.0,6.06011551,137.8092979,7.68,'11111222,11111222,11111222' 
TABS,ioos:station:wmo:42043:1,2015-09-16T12:30:00Z,28.9818,-94.9186,4.0,6.425239295,131.5301873,8.03,'11111222,11111222,11111222' 
TABS,ioos:station:wmo:42043:1,2015-09-16T13:00:00Z,28.9818,-94.9186,4.0,5.828181535,131.8706204,7.33,'11111222,11111222,11111222' 
TABS,ioos:station:wmo:42043:1,2015-09-16T13:30:00Z,28.9818,-94.9186,4.0,5.624775551,124.0576844,7.05,'11111222,11111222,11111222' 
TABS,ioos:station:wmo:42043:1,2015-09-16T14:00:00Z,28.9818,-94.9186,4.0,4.757320674,130.8236957,8.46,'11111222,11111222,11111222' 
TABS,ioos:station:wmo:42043:1,2015-09-16T14:30:00Z,28.9818,-94.9186,4.0,6.07217424,127.304282,7.72,'11111222,11111222,11111222' 
TABS,ioos:station:wmo:42043:1,2015-09-16T15:00:00Z,28.9818,-94.9186,4.0,6.117025421,125.8211161,8.1,'11111222,11111222,11111222' 
TABS,ioos:station:wmo:42043:1,2015-09-16T15:30:00Z,28.9818,-94.9186,4.0,6.329249561,121.957751,7.89,'11111222,11111222,11111222' 
TABS,ioos:station:wmo:42043:1,2015-09-16T16:00:00Z,28.9818,-94.9186,4.0,6.085926388,122.7242575,8.02,'11111222,11111222,11111222' 
TABS,ioos:station:wmo:42043:1,2015-09-16T16:30:00Z,28.9818,-94.9186,4.0,6.050471056,120.9316245,7.31,'11111222,11111222,11111222' 
TABS,ioos:station:wmo:42043:1,2015-09-16T17:00:00Z,28.9818,-94.9186,4.0,5.608315255,116.017143,7.3,'11111222,11111222,11111222' 
TABS,ioos:station:wmo:42043:1,2015-09-16T17:30:00Z,28.9818,-94.9186,4.0,5.752434267,117.7681745,7.14,'11111222,11111222,11111222' 
TABS,ioos:station:wmo:42043:1,2015-09-16T18:00:00Z,28.9818,-94.9186,4.0,5.858668791,116.1280471,7.2,'11111222,11111222,11111222' 
TABS,ioos:station:wmo:42043:1,2015-09-16T18:30:00Z,28.9818,-94.9186,4.0,5.804894487,112.0583801,7.34,'11111222,11111222,11111222' 
TABS,ioos:station:wmo:42043:1,2015-09-16T19:00:00Z,28.9818,-94.9186,4.0,5.78,118.0728422,7.24,'11111222,11111222,11111222' 
TABS,ioos:station:wmo:42043:1,2015-09-16T19:30:00Z,28.9818,-94.9186,4.0,5.792495145,110.9384606,7.4,'11111222,11111222,11111222' 
TABS,ioos:station:wmo:42043:1,2015-09-16T20:00:00Z,28.9818,-94.9186,4.0,5.844381918,109.1793841,7.65,'11111222,11111222,11111222' 
TABS,ioos:station:wmo:42043:1,2015-09-16T20:30:00Z,28.9818,-94.9186,4.0,5.475152966,107.2108228,7.17,'11111222,11111222,11111222' 
TABS,ioos:station:wmo:42043:1,2015-09-16T21:00:00Z,28.9818,-94.9186,4.0,5.164348943,109.101933,7.37,'11111222,11111222,11111222' 
TABS,ioos:station:wmo:42043:1,2015-09-16T21:30:00Z,28.9818,-94.9186,4.0,5.152281048,117.2616769,6.85,'11111222,11111222,11111222' 
TABS,ioos:station:wmo:42043:1,2015-09-16T22:00:00Z,28.9818,-94.9186,4.0,5.322264556,117.2875857,6.76,'11111222,11111222,11111222' 
TABS,ioos:station:wmo:42043:1,2015-09-16T22:30:00Z,28.9818,-94.9186,4.0,5.666339206,121.1375175,6.99,'11111222,11111222,11111222' 
TABS,ioos:station:wmo:42043:1,2015-09-16T23:00:00Z,28.9818,-94.9186,4.0,4.919928861,132.2818448,6.21,'11111222,11111222,11111222' 
TABS,ioos:station:wmo:42043:1,2015-09-16T23:30:00Z,28.9818,-94.9186,4.0,4.850917439,123.3955805,6.54,'11111222,11111222,11111222' 
TABS,ioos:station:wmo:42043:1,2015-09-17T00:00:00Z,28.9818,-94.9186,4.0,4.672472579,122.0577217,5.87,'11111222,11111222,11111222' 
TABS,ioos:station:wmo:42043:1,2015-09-17T00:30:00Z,28.9818,-94.9186,4.0,5.276741419,122.3049806,6.66,'11111222,11111222,11111222' 
TABS,ioos:station:wmo:42043:1,2015-09-17T01:00:00Z,28.9818,-94.9186,4.0,4.61615641,127.3418929,6.83,'11111222,11111222,11111222' 
TABS,ioos:station:wmo:42043:1,2015-09-17T01:30:00Z,28.9818,-94.9186,4.0,5.65692496,140.7394008,7.27,'11111222,11111222,11111222' 
TABS,ioos:station:wmo:42043:1,2015-09-17T02:00:00Z,28.9818,-94.9186,4.0,5.092357018,131.7366436,6.99,'11111222,11111222,11111222' 
TABS,ioos:station:wmo:42043:1,2015-09-17T02:30:00Z,28.9818,-94.9186,4.0,5.793668958,129.8185609,6.9,'11111222,11111222,11111222' 
TABS,ioos:station:wmo:42043:1,2015-09-17T03:00:00Z,28.9818,-94.9186,4.0,5.426619574,126.0044223,6.74,'11111222,11111222,11111222' 
TABS,ioos:station:wmo:42043:1,2015-09-17T03:30:00Z,28.9818,-94.9186,4.0,5.230344157,126.2129498,7.23,'11111222,11111222,11111222' 
TABS,ioos:station:wmo:42043:1,2015-09-17T04:00:00Z,28.9818,-94.9186,4.0,4.738311936,128.6601388,6.06,'11111222,11111222,11111222' 
TABS,ioos:station:wmo:42043:1,2015-09-17T04:30:00Z,28.9818,-94.9186,4.0,4.994436905,128.6601388,6.37,'11111222,11111222,11111222' 
TABS,ioos:station:wmo:42043:1,2015-09-17T05:00:00Z,28.9818,-94.9186,4.0,4.810509329,126.0364668,5.95,'11111222,11111222,11111222' 
TABS,ioos:station:wmo:42043:1,2015-09-17T05:30:00Z,28.9818,-94.9186,4.0,4.161201749,129.7353812,5.53,'11111222,11111222,11111222' 
TABS,ioos:station:wmo:42043:1,2015-09-17T06:00:00Z,28.9818,-94.9186,4.0,3.98246155,141.115805,5.55,'11111222,11111222,11111222' 
TABS,ioos:station:wmo:42043:1,2015-09-17T06:30:00Z,28.9818,-94.9186,4.0,3.740601556,134.8920065,4.83,'11111222,11111222,11111222' 
TABS,ioos:station:wmo:42043:1,2015-09-17T07:00:00Z,28.9818,-94.9186,4.0,3.717122543,130.4177134,4.69,'11111222,11111222,11111222' 
TABS,ioos:station:wmo:42043:1,2015-09-17T07:30:00Z,28.9818,-94.9186,4.0,3.723251267,137.6127538,5.1,'11111222,11111222,11111222' 
TABS,ioos:station:wmo:42043:1,2015-09-17T08:00:00Z,28.9818,-94.9186,4.0,3.875177415,134.3730162,4.82,'11111222,11111222,11111222' 
TABS,ioos:station:wmo:42043:1,2015-09-17T08:30:00Z,28.9818,-94.9186,4.0,4.306738905,138.3888648,5.32,'11111222,11111222,11111222' 
TABS,ioos:station:wmo:42043:1,2015-09-17T09:00:00Z,28.9818,-94.9186,4.0,3.798157448,141.1991385,5.06,'11111222,11111222,11111222' 
TABS,ioos:station:wmo:42043:1,2015-09-17T09:30:00Z,28.9818,-94.9186,4.0,3.854828141,136.3667417,5.2,'11111222,11111222,11111222' 
TABS,ioos:station:wmo:42043:1,2015-09-17T10:00:00Z,28.9818,-94.9186,4.0,3.830208872,127.4685985,5.07,'11111222,11111222,11111222' 
TABS,ioos:station:wmo:42043:1,2015-09-17T10:30:00Z,28.9818,-94.9186,4.0,3.812217203,128.8244437,4.71,'11111222,11111222,11111222' 
TABS,ioos:station:wmo:42043:1,2015-09-17T11:00:00Z,28.9818,-94.9186,4.0,3.53,129.598081,4.46,'11111222,11111222,11111222' 
TABS,ioos:station:wmo:42043:1,2015-09-17T11:30:00Z,28.9818,-94.9186,4.0,3.684087404,134.670402,4.6,'11111222,11111222,11111222' 
TABS,ioos:station:wmo:42043:1,2015-09-17T12:00:00Z,28.9818,-94.9186,4.0,3.656036105,141.2181185,5.48,'11111222,11111222,11111222' 
TABS,ioos:station:wmo:42043:1,2015-09-17T12:30:00Z,28.9818,-94.9186,4.0,3.719408555,135.2181688,5.13,'11111222,11111222,11111222' 
TABS,ioos:station:wmo:42043:1,2015-09-17T13:00:00Z,28.9818,-94.9186,4.0,3.867622008,125.2108123,5.27,'11111222,11111222,11111222' 
TABS,ioos:station:wmo:42043:1,2015-09-17T13:30:00Z,28.9818,-94.9186,4.0,3.422659784,134.2900755,4.63,'11111222,11111222,11111222' 
TABS,ioos:station:wmo:42043:1,2015-09-17T14:00:00Z,28.9818,-94.9186,4.0,3.456356463,131.7164611,4.54,'11111222,11111222,11111222' 
TABS,ioos:station:wmo:42043:1,2015-09-17T14:30:00Z,28.9818,-94.9186,4.0,3.603123645,129.2561708,4.77,'11111222,11111222,11111222' 
TABS,ioos:station:wmo:42043:1,2015-09-17T15:00:00Z,28.9818,-94.9186,4.0,3.66705604,128.2453138,4.92,'11111222,11111222,11111222' 
TABS,ioos:station:wmo:42043:1,2015-09-17T15:30:00Z,28.9818,-94.9186,4.0,3.775248336,115.4115068,4.7,'11111222,11111222,11111222' 
TABS,ioos:station:wmo:42043:1,2015-09-17T16:00:00Z,28.9818,-94.9186,4.0,4.15404622,112.0579049,5.17,'11111222,11111222,11111222' 
TABS,ioos:station:wmo:42043:1,2015-09-17T16:30:00Z,28.9818,-94.9186,4.0,4.04499691,122.2759898,5.05,'11111222,11111222,11111222' 
TABS,ioos:station:wmo:42043:1,2015-09-17T17:00:00Z,28.9818,-94.9186,4.0,4.638027598,117.3388818,5.62,'11111222,11111222,11111222' 
TABS,ioos:station:wmo:42043:1,2015-09-17T17:30:00Z,28.9818,-94.9186,4.0,4.773185519,113.7190959,6.38,'11111222,11111222,11111222' 
TABS,ioos:station:wmo:42043:1,2015-09-17T18:00:00Z,28.9818,-94.9186,4.0,4.91940037,116.8258429,5.93,'11111222,11111222,11111222' 
TABS,ioos:station:wmo:42043:1,2015-09-17T18:30:00Z,28.9818,-94.9186,4.0,4.194877829,111.9793218,5.41,'11111222,11111222,11111222' 
TABS,ioos:station:wmo:42043:1,2015-09-17T19:00:00Z,28.9818,-94.9186,4.0,4.219253488,112.4322078,5.17,'11111222,11111222,11111222' 
TABS,ioos:station:wmo:42043:1,2015-09-17T19:30:00Z,28.9818,-94.9186,4.0,3.93517471,109.9088447,5.27,'11111222,11111222,11111222' 
TABS,ioos:station:wmo:42043:1,2015-09-17T20:00:00Z,28.9818,-94.9186,4.0,4.009850371,110.7403789,5.17,'11111222,11111222,11111222' 
TABS,ioos:station:wmo:42043:1,2015-09-17T20:30:00Z,28.9818,-94.9186,4.0,3.71845398,114.6356009,4.78,'11111222,11111222,11111222' 
TABS,ioos:station:wmo:42043:1,2015-09-17T21:00:00Z,28.9818,-94.9186,4.0,3.305525677,119.7452327,4.47,'11111222,11111222,11111222' 
TABS,ioos:station:wmo:42043:1,2015-09-17T21:30:00Z,28.9818,-94.9186,4.0,3.772558813,118.6714183,4.88,'11111222,11111222,11111222' 
TABS,ioos:station:wmo:42043:1,2015-09-17T22:00:00Z,28.9818,-94.9186,4.0,4.061182094,115.6820669,5.28,'11111222,11111222,11111222' 
TABS,ioos:station:wmo:42043:1,2015-09-17T22:30:00Z,28.9818,-94.9186,4.0,4.25,118.0728422,5.41,'11111222,11111222,11111222' 
TABS,ioos:station:wmo:42043:1,2015-09-17T23:00:00Z,28.9818,-94.9186,4.0,4.229952718,118.9891757,5.59,'11111222,11111222,11111222' 
TABS,ioos:station:wmo:42043:1,2015-09-17T23:30:00Z,28.9818,-94.9186,4.0,4.682403229,116.2370718,5.63,'11111222,11111222,11111222' 
TABS,ioos:station:wmo:42043:1,2015-09-18T00:00:00Z,28.9818,-94.9186,4.0,4.883287827,113.1527386,6.12,'11111222,11111222,11111222' 
TABS,ioos:station:wmo:42043:1,2015-09-18T00:30:00Z,28.9818,-94.9186,4.0,4.917367182,121.7834149,6.1,'11111222,11111222,11111222' 
TABS,ioos:station:wmo:42043:1,2015-09-18T01:00:00Z,28.9818,-94.9186,4.0,5.126333973,121.5199838,6.21,'11111222,11111222,11111222' 
TABS,ioos:station:wmo:42043:1,2015-09-18T01:30:00Z,28.9818,-94.9186,4.0,4.782102048,122.7931614,5.97,'11111222,11111222,11111222' 
TABS,ioos:station:wmo:42043:1,2015-09-18T02:00:00Z,28.9818,-94.9186,4.0,4.931896187,124.5926287,6.39,'11111222,11111222,11111222' 
TABS,ioos:station:wmo:42043:1,2015-09-18T02:30:00Z,28.9818,-94.9186,4.0,5.048732514,125.8942124,6.08,'11111222,11111222,11111222' 
TABS,ioos:station:wmo:42043:1,2015-09-18T03:00:00Z,28.9818,-94.9186,4.0,4.655759874,125.2948146,5.7,'11111222,11111222,11111222' 
TABS,ioos:station:wmo:42043:1,2015-09-18T03:30:00Z,28.9818,-94.9186,4.0,4.689317648,133.7042552,5.98,'11111222,11111222,11111222' 
TABS,ioos:station:wmo:42043:1,2015-09-18T04:00:00Z,28.9818,-94.9186,4.0,4.894180217,136.159318,6.51,'11111222,11111222,11111222' 
TABS,ioos:station:wmo:42043:1,2015-09-18T04:30:00Z,28.9818,-94.9186,4.0,4.908054604,134.0097116,6.04,'11111222,11111222,11111222' 
TABS,ioos:station:wmo:42043:1,2015-09-18T05:00:00Z,28.9818,-94.9186,4.0,4.860545237,136.9177943,6.53,'11111222,11111222,11111222' 
TABS,ioos:station:wmo:42043:1,2015-09-18T05:30:00Z,28.9818,-94.9186,4.0,5.106897297,141.2003201,6.46,'11111222,11111222,11111222' 
TABS,ioos:station:wmo:42043:1,2015-09-18T06:00:00Z,28.9818,-94.9186,4.0,5.16313858,141.1325238,6.57,'11111222,11111222,11111222' 
TABS,ioos:station:wmo:42043:1,2015-09-18T06:30:00Z,28.9818,-94.9186,4.0,5.222575993,146.0059461,6.63,'11111222,11111222,11111222' 
TABS,ioos:station:wmo:42043:1,2015-09-18T07:00:00Z,28.9818,-94.9186,4.0,4.856428729,146.506551,6.14,'11111222,11111222,11111222' 
TABS,ioos:station:wmo:42043:1,2015-09-18T07:30:00Z,28.9818,-94.9186,4.0,4.762740808,148.4794742,6.01,'11111222,11111222,11111222' 
TABS,ioos:station:wmo:42043:1,2015-09-18T08:00:00Z,28.9818,-94.9186,4.0,4.540539616,142.247056,5.72,'11111222,11111222,11111222' 
TABS,ioos:station:wmo:42043:1,2015-09-18T08:30:00Z,28.9818,-94.9186,4.0,3.761076973,153.2989657,5.11,'11111222,11111222,11111222' 
TABS,ioos:station:wmo:42043:1,2015-09-18T09:00:00Z,28.9818,-94.9186,4.0,3.85529506,154.1663326,5.28,'11111222,11111222,11111222' 
TABS,ioos:station:wmo:42043:1,2015-09-18T09:30:00Z,28.9818,-94.9186,4.0,4.014785175,148.9631018,5.1,'11111222,11111222,11111222' 
TABS,ioos:station:wmo:42043:1,2015-09-18T10:00:00Z,28.9818,-94.9186,4.0,4.031128874,156.6150441,5.17,'11111222,11111222,11111222' 
TABS,ioos:station:wmo:42043:1,2015-09-18T10:30:00Z,28.9818,-94.9186,4.0,2.798731856,147.1051549,4.24,'11111222,11111222,11111222' 
TABS,ioos:station:wmo:42043:1,2015-09-18T11:00:00Z,28.9818,-94.9186,4.0,3.296194776,158.6507519,4.86,'11111222,11111222,11111222' 
TABS,ioos:station:wmo:42043:1,2015-09-18T11:30:00Z,28.9818,-94.9186,4.0,2.42243679,150.578105,3.56,'11111222,11111222,11111222' 
TABS,ioos:station:wmo:42043:1,2015-09-18T12:00:00Z,28.9818,-94.9186,4.0,2.509362469,159.470937,3.5,'11111222,11111222,11111222' 
TABS,ioos:station:wmo:42043:1,2015-09-18T12:30:00Z,28.9818,-94.9186,4.0,2.800071428,152.3370368,4.02,'11111222,11111222,11111222' 
TABS,ioos:station:wmo:42043:1,2015-09-18T13:00:00Z,28.9818,-94.9186,4.0,2.541908732,151.3178609,3.89,'11111222,11111222,11111222' 
TABS,ioos:station:wmo:42043:1,2015-09-18T13:30:00Z,28.9818,-94.9186,4.0,2.449101876,146.8293074,3.42,'11111222,11111222,11111222' 
TABS,ioos:station:wmo:42043:1,2015-09-18T14:00:00Z,28.9818,-94.9186,4.0,3.01623938,127.5920889,4.62,'11111222,11111222,11111222' 
TABS,ioos:station:wmo:42043:1,2015-09-18T14:30:00Z,28.9818,-94.9186,4.0,2.998132752,135.0003157,4.54,'11111222,11111222,11111222' 
TABS,ioos:station:wmo:42043:1,2015-09-18T15:00:00Z,28.9818,-94.9186,4.0,3.323386827,128.5255158,4.75,'11111222,11111222,11111222' 
TABS,ioos:station:wmo:42043:1,2015-09-18T15:30:00Z,28.9818,-94.9186,4.0,3.252814166,134.5021052,4.52,'11111222,11111222,11111222' 
TABS,ioos:station:wmo:42043:1,2015-09-18T16:00:00Z,28.9818,-94.9186,4.0,3.335416016,130.1358126,4.24,'11111222,11111222,11111222' 
TABS,ioos:station:wmo:42043:1,2015-09-18T16:30:00Z,28.9818,-94.9186,4.0,3.130015974,126.6871798,4.4,'11111222,11111222,11111222' 
TABS,ioos:station:wmo:42043:1,2015-09-18T17:00:00Z,28.9818,-94.9186,4.0,3.117851825,121.0901679,4.24,'11111222,11111222,11111222' 
TABS,ioos:station:wmo:42043:1,2015-09-18T17:30:00Z,28.9818,-94.9186,4.0,2.947710976,117.6955265,3.92,'11111222,11111222,11111222' 
TABS,ioos:station:wmo:42043:1,2015-09-18T18:00:00Z,28.9818,-94.9186,4.0,3.395673718,121.0219794,4.32,'11111222,11111222,11111222' 
TABS,ioos:station:wmo:42043:1,2015-09-18T18:30:00Z,28.9818,-94.9186,4.0,4.200773738,122.0635598,5.31,'11111222,11111222,11111222' 
TABS,ioos:station:wmo:42043:1,2015-09-18T19:00:00Z,28.9818,-94.9186,4.0,4.224807688,124.7812652,5.13,'11111222,11111222,11111222' 
TABS,ioos:station:wmo:42043:1,2015-09-18T19:30:00Z,28.9818,-94.9186,4.0,3.841692335,116.0985175,5.52,'11111222,11111222,11111222' 
TABS,ioos:station:wmo:42043:1,2015-09-18T20:00:00Z,28.9818,-94.9186,4.0,4.598804192,125.7987119,5.83,'11111222,11111222,11111222' 
TABS,ioos:station:wmo:42043:1,2015-09-18T20:30:00Z,28.9818,-94.9186,4.0,4.33115458,122.0758414,5.61,'11111222,11111222,11111222' 
TABS,ioos:station:wmo:42043:1,2015-09-18T21:00:00Z,28.9818,-94.9186,4.0,4.493606569,124.5745315,5.75,'11111222,11111222,11111222' 